Weather History for Covington, KY

Change the Weather History Date:

Sunday, March 31, 2013

  Actual Average Record
Temperature  
Mean Temperature 51 °F 49 °F  
Max Temperature 57 °F 59 °F 84 °F (1986)
Min Temperature 45 °F 39 °F 14 °F (1923)
Degree Days  
Heating Degree Days 14 16  
Month to date heating degree days 855 666  
Since 1 July heating degree days 4565 4493  
Cooling Degree Days 0 0  
Month to date cooling degree days 0 0  
Year to date cooling degree days 0 0  
Growing Degree Days 1 (Base 50)    
Moisture  
Dew Point 44 °F    
Average Humidity 76    
Maximum Humidity 100    
Minimum Humidity 51    
Precipitation  
Precipitation 0.08 in 0.14 in 1.34 in (1996)
Month to date precipitation 3.91 3.96  
Year to date precipitation 9.51 9.77  
Snow  
Snow 0.00 in 0.00 in 1.20 in (1987)
Month to date snowfall 8.8 3.0  
Since 1 July snowfall 25.2 21.6  
Snow Depth 0.00 in    
Sea Level Pressure  
Sea Level Pressure 29.83 in    
Wind  
Wind Speed 6 mph (WSW)    
Max Wind Speed 18 mph    
Max Gust Speed 24 mph    
Visibility 7 miles    
Events Rain    
T = Trace of Precipitation, MM = Missing Value Source: NWS Daily Summary

Daily Weather History Graph

Daily Weather History Graph

Search for Another Location

Airport:

Trip Planner

Search our weather history database for the weather conditions in past years. The results will help you decide how hot, cold, wet, or windy it might be!

Date:

Astronomy

Mar. 31, 2013 Rise Set
Actual Time 7:24 AM EDT 8:01 PM EDT
Civil Twilight 6:57 AM EDT 8:28 PM EDT
Nautical Twilight 6:25 AM EDT 9:00 PM EDT
Astronomical Twilight 5:53 AM EDT 9:33 PM EDT
Moon 12:04 AM EDT (3/31) 10:13 AM EDT (3/31)
Length of Visible Light 13h 31m
Length of Day
12h 37m
Waning Gibbous, 78% of the Moon is Illuminated
Mar 31
Waning Gibbous
Apr 3
Last Quarter
Apr 10
New
Apr 18
First Quarter
Apr 25
Full

Hourly Weather History & Observations

Time (EDT) Temp. Windchill Dew Point Humidity Pressure Visibility Wind Dir Wind Speed Gust Speed Precip Events Conditions
12:52 AM 48.9 °F - 35.1 °F 59% 29.92 in 10.0 mi South 4.6 mph - N/A   Overcast
1:52 AM 48.9 °F - 39.0 °F 69% 29.90 in 10.0 mi SSW 4.6 mph - 0.00 in Rain Light Rain
2:52 AM 46.9 °F - 45.0 °F 93% 29.88 in 9.0 mi South 9.2 mph - 0.02 in Rain Light Rain
3:52 AM 46.9 °F - 45.0 °F 93% 29.85 in 8.0 mi SSW 5.8 mph - 0.01 in Rain Light Rain
4:52 AM 46.0 °F - 46.0 °F 100% 29.83 in 7.0 mi Calm Calm - 0.02 in Rain Light Rain
5:52 AM 45.0 °F - 45.0 °F 100% 29.82 in 5.0 mi Calm Calm - 0.00 in Rain Light Rain
6:52 AM 46.0 °F - 46.0 °F 100% 29.82 in 8.0 mi Calm Calm - 0.00 in   Overcast
7:52 AM 46.0 °F - 46.0 °F 100% 29.82 in 5.0 mi Calm Calm - N/A   Overcast
8:34 AM 46.4 °F 45.2 °F 46.4 °F 100% 29.83 in 5.0 mi WSW 3.5 mph - N/A   Overcast
8:52 AM 46.0 °F - 46.0 °F 100% 29.83 in 5.0 mi Calm Calm - N/A   Overcast
9:41 AM 46.4 °F 42.4 °F 46.4 °F 100% 29.83 in 1.2 mi West 8.1 mph - N/A   Overcast
9:52 AM 46.0 °F 42.5 °F 46.0 °F 100% 29.83 in 1.2 mi WNW 6.9 mph - 0.00 in   Light Drizzle
10:01 AM 46.4 °F 42.9 °F 46.4 °F 100% 29.84 in 0.5 mi West 6.9 mph - 0.01 in Rain Light Rain
10:52 AM 46.9 °F - 46.9 °F 100% 29.83 in 0.5 mi WSW 4.6 mph - 0.03 in   Overcast
11:04 AM 46.4 °F 43.5 °F 46.4 °F 100% 29.84 in 6.0 mi West 5.8 mph - N/A   Overcast
11:21 AM 48.2 °F - 48.2 °F 100% 29.84 in 9.0 mi West 5.8 mph - N/A   Overcast
11:48 AM 48.2 °F - 48.2 °F 100% 29.84 in 8.0 mi West 10.4 mph - N/A   Overcast
11:52 AM 48.0 °F - 48.0 °F 100% 29.84 in 8.0 mi WSW 8.1 mph - N/A   Overcast
12:31 PM 50.0 °F - 48.2 °F 94% 29.84 in 7.0 mi WSW 8.1 mph - N/A   Overcast
12:52 PM 50.0 °F - 48.0 °F 93% 29.85 in 8.0 mi WSW 9.2 mph - N/A   Overcast
1:52 PM 50.0 °F - 48.0 °F 93% 29.83 in 8.0 mi WSW 10.4 mph - N/A   Overcast
2:52 PM 50.0 °F - 48.0 °F 93% 29.83 in 7.0 mi West 9.2 mph - N/A   Overcast
3:52 PM 55.0 °F - 45.0 °F 69% 29.81 in 10.0 mi WSW 9.2 mph 20.7 mph N/A   Mostly Cloudy
4:52 PM 55.9 °F - 42.1 °F 60% 29.80 in 10.0 mi WSW 9.2 mph 18.4 mph N/A   Mostly Cloudy
5:52 PM 55.0 °F - 39.9 °F 57% 29.79 in 10.0 mi West 15.0 mph 24.2 mph N/A   Scattered Clouds
6:52 PM 57.0 °F - 39.0 °F 51% 29.81 in 10.0 mi West 10.4 mph - N/A   Scattered Clouds
7:52 PM 55.0 °F - 37.9 °F 53% 29.81 in 10.0 mi SW 4.6 mph - N/A   Partly Cloudy
8:52 PM 51.1 °F - 37.9 °F 61% 29.80 in 10.0 mi SW 5.8 mph - N/A   Clear
9:52 PM 50.0 °F - 37.9 °F 63% 29.81 in 10.0 mi SW 6.9 mph - N/A   Clear
10:52 PM 48.0 °F - 37.9 °F 68% 29.83 in 10.0 mi West 5.8 mph - N/A   Partly Cloudy
11:52 PM 48.0 °F - 39.0 °F 71% 29.82 in 10.0 mi West 5.8 mph - N/A   Scattered Clouds